Scottsdale, AZ

3:22 AM MST on May 24, 2018 (GMT -0700)
Scottsdale

Weather History for KSDL - January, 2014

Change the Weather History Date:

Thursday, January 9, 2014

  Actual Average Record
Temperature  
Mean Temperature 52 °F -  
Max Temperature 64 °F 63 °F 75 °F (2004)
Min Temperature 41 °F 42 °F 35 °F (1997)
Degree Days  
Heating Degree Days 12    
Growing Degree Days 2 (Base 50)    
Moisture  
Dew Point 26 °F    
Average Humidity 43    
Maximum Humidity 65    
Minimum Humidity 16    
Precipitation  
Precipitation 0.00 in - - ()
Sea Level Pressure  
Sea Level Pressure 30.01 in    
Wind  
Wind Speed 1 mph (WSW)    
Max Wind Speed 4 mph    
Max Gust Speed -    
Visibility 10 miles    
Events      
Averages and records for this station are not official NWS values.
T = Trace of Precipitation, MM = Missing Value Source: NWS Daily Summary

Daily Weather History Graph

Daily Weather History Graph

Search for Another Location

Airport or City:

Astronomy

Jan. 09, 2014 Rise Set
Actual Time 7:32 AM MST 5:37 PM MST
Civil Twilight 7:05 AM MST 6:04 PM MST
Nautical Twilight 6:34 AM MST 6:35 PM MST
Astronomical Twilight 6:04 AM MST 7:05 PM MST
Moon 1:00 PM MST (1/9) 1:51 AM MST (1/9)
Length of Visible Light 10h 58m
Length of Day
10h 04m
Waxing Gibbous, 66% of the Moon is Illuminated
Jan 9
Waxing Gibbous
Jan 15
Full
Jan 23
Last Quarter
Jan 30
New
Feb 6
First Quarter

Hourly Weather History & Observations

Time (MST) Temp. Windchill Dew Point Humidity Pressure Visibility Wind Dir Wind Speed Gust Speed Precip Events Conditions
12:53 AM 45.0 °F - 27.0 °F 49% 30.05 in 10.0 mi Calm Calm - N/A   Clear
1:53 AM 43.0 °F - 28.0 °F 56% 30.04 in 10.0 mi Calm Calm - N/A   Clear
2:53 AM 43.0 °F - 28.9 °F 58% 30.04 in 10.0 mi Calm Calm - N/A   Clear
3:53 AM 41.0 °F - 28.9 °F 62% 30.04 in 10.0 mi Calm Calm - N/A   Clear
4:53 AM 42.1 °F - 28.9 °F 60% 30.03 in 10.0 mi Calm Calm - N/A   Clear
5:53 AM 43.0 °F - 28.9 °F 58% 30.01 in 10.0 mi Calm Calm - N/A   Clear
6:53 AM 41.0 °F - 30.0 °F 65% 30.03 in 10.0 mi Calm Calm - N/A   Clear
7:53 AM 42.1 °F - 30.0 °F 62% 30.04 in 10.0 mi Calm Calm - N/A   Clear
8:53 AM 44.1 °F 42.5 °F 28.0 °F 53% 30.06 in 10.0 mi NW 3.5 mph - N/A   Clear
9:53 AM 50.0 °F - 28.0 °F 43% 30.06 in 10.0 mi Calm Calm - N/A   Clear
10:53 AM 52.0 °F - 28.9 °F 41% 30.06 in 10.0 mi WSW 3.5 mph - N/A   Clear
11:53 AM 55.9 °F - 27.0 °F 33% 30.04 in 10.0 mi Calm Calm - N/A   Clear
12:53 PM 62.1 °F - 21.9 °F 21% 29.99 in 10.0 mi Calm Calm - N/A   Clear
1:53 PM 64.0 °F - 17.1 °F 16% 29.95 in 10.0 mi Calm Calm - N/A   Clear
2:53 PM 64.9 °F - 18.0 °F 16% 29.94 in 10.0 mi SSE 3.5 mph - N/A   Clear
4:53 PM 64.0 °F - 19.0 °F 18% 29.94 in 10.0 mi South 3.5 mph - N/A   Clear
5:53 PM 61.0 °F - 23.0 °F 23% 29.95 in 10.0 mi West 3.5 mph - N/A   Clear
6:53 PM 55.0 °F - 25.0 °F 31% 29.95 in 10.0 mi Calm Calm - N/A   Clear
7:53 PM 53.1 °F - 26.1 °F 35% 29.98 in 10.0 mi Calm Calm - N/A   Clear
8:53 PM 51.1 °F - 27.0 °F 39% 30.00 in 10.0 mi Calm Calm - N/A   Clear
9:53 PM 48.9 °F - 28.0 °F 44% 30.01 in 10.0 mi NNE 3.5 mph - N/A   Clear
10:53 PM 48.0 °F - 27.0 °F 44% 30.01 in 10.0 mi Calm Calm - N/A   Clear
11:53 PM 44.1 °F - 30.0 °F 58% 30.01 in 10.0 mi Calm Calm - N/A   Clear